Weather Service Report


282 
ASUS44 KBMX 281010
RWRAL 
             
ALABAMA REGIONAL WEATHER ROUNDUP
NATIONAL WEATHER SERVICE BIRMINGHAM AL
500 AM CDT MON JUL 28 2014

NOTE: "FAIR" INDICATES FEW OR NO CLOUDS BELOW 12,000 FEET
WITH NO SIGNIFICANT WEATHER AND/OR OBSTRUCTIONS TO VISIBILITY.

THE REMARK "TC" DENOTES TEMPERATURE IN DEGREES CELSIUS.

ALZ001>011-014-016>018-020-281100-
NORTH ALABAMA
  
CITY           SKY/WX    TMP DP  RH WIND       PRES   REMARKS
MUSCLE SHOALS  MOCLDY    79  71  76 N6        29.97R                  
HUNTSVILLE     PTCLDY    77  70  79 N6        29.95R                  
DECATUR        PTCLDY    76  71  85 N7        29.96R                  
HALEYVILLE     MOCLDY    77  77 100 CALM      30.00R                  
GADSDEN        MOCLDY    81  73  78 W9        29.93S                  
$$
 
ALZ012-013-022-023-030>036-040>044-281100-
WEST CENTRAL ALABAMA
  
CITY           SKY/WX    TMP DP  RH WIND       PRES   REMARKS
TUSCALOOSA     MOCLDY    80  74  81 W6        29.95S                  
$$
 
ALZ015-024>027-033>036-040>044-281100-
CENTRAL ALABAMA
  
CITY           SKY/WX    TMP DP  RH WIND       PRES   REMARKS
BIRMINGHAM     CLOUDY    80  73  79 W8        29.98R                  
MONTGOMERY     CLEAR     78  74  87 SW5       29.98R                  
SHELBY CO ARPT MOCLDY    78  74  87 S3        29.97R                  
MAXWELL AFB    PTCLDY    77  76  99 S2        29.98R                  
GREENVILLE     FAIR      76  74  93 W5        30.00R FOG              
$$
 
ALZ019-021-028-029-037-038-045>048-281100-
EAST CENTRAL ALABAMA
  
CITY           SKY/WX    TMP DP  RH WIND       PRES   REMARKS
ANNISTON       MOCLDY    77  74  90 W6        29.95S                  
ALEXANDER CITY PTCLDY    81  74  79 CALM      29.98S HAZE             
AUBURN         PTCLDY    75  70  83 SW7       30.02R                  
$$
 
ALZ051>064-281100-
SOUTHWEST ALABAMA
  
CITY           SKY/WX    TMP DP  RH WIND       PRES   REMARKS
MOBILE         CLEAR     77  77 100 W5        30.04R                  
BROOKLEY FIELD CLEAR     80  77  90 VRB6      30.03R                  
EVERGREEN      CLEAR     78  75  90 CALM      30.01R                  
$$

ALZ049-050-065>069-281100-
SOUTHEAST ALABAMA
  
CITY           SKY/WX    TMP DP  RH WIND       PRES   REMARKS
DOTHAN         CLEAR     77  75  93 W5        30.04R                  
OZARK          CLEAR     76  75  96 SW2       30.00R                  
TROY           CLEAR     76  74  93 CALM      30.01R FOG              
EUFAULA        FAIR      79  75  87 W3        29.97S                  
$$

Return to Home page


Western Regional Climate Center, wrcc@dri.edu